This demonstration page uses our WeatherBlox Daily Observations layout. Learn more.

Left ArrowRight Arrow

34.74481, -87.66753

Hourly Observations for June 9, 2019

Temp ( °F °C ) Dew Point ( °F °C ) Humidity (%) Winds ( mph kmh ) Pressure ( in mb ) Visibility ( mi km ) Precip ( " mm )
12:53 am 00:53 Clear 72 22.2 70 21.1 94 94 E 3 6 29.76 1008 10 16 0.00 0.00
1:53 am 01:53 Mostly Clear 72 22.2 69 20.6 91 91 Calm 29.76 1008 10 16 0.00 0.00
2:53 am 02:53 Clear 71 21.7 69 20.6 94 94 Calm 29.77 1008 10 16 0.00 0.00
3:53 am 03:53 Cloudy 72 22.2 69 20.6 91 91 Calm 29.77 1008 10 16 0.00 0.00
4:53 am 04:53 Mostly Cloudy 71 21.7 69 20.6 94 94 Calm 29.78 1008 10 16 0.00 0.00
5:53 am 05:53 Cloudy 71 21.7 69 20.6 94 94 Calm 29.81 1010 10 16 0.00 0.00
6:53 am 06:53 Cloudy 72 22.2 71 21.7 97 97 SSE 5 7 29.83 1010 10 16 0.00 0.00
7:53 am 07:53 Cloudy 72 22.2 70 21.1 94 94 SW 3 6 29.85 1011 10 16 0.00 0.00
8:30 am 08:30 Cloudy 73 22.8 71 21.7 94 94 SSW 3 6 29.86 1011 10 16 0.00 0.00
8:41 am 08:41 Cloudy 74 23.3 71 21.7 91 91 SSW 5 7 29.86 1011 10 16 0.00 0.00
8:51 am 08:51 Cloudy 73 23 72 22 94 94 WSW 3 6 29.86 1011 10 16 0.00 0.00
8:53 am 08:53 Cloudy 74 23.3 71 21.7 91 91 SSW 5 7 29.86 1011 10 16 0.00 0.00
9:53 am 09:53 Cloudy 77 25 71 21.7 82 82 Calm 29.86 1011 10 16 0.00 0.00
10:22 am 10:22 Cloudy 79 26.1 70 21.1 74 74 NNE 3 6 29.87 1011 10 16 0.00 0.00
10:53 am 10:53 Cloudy 79 26.1 70 21.1 74 74 Calm 29.86 1011 10 16 0.00 0.00
11:53 am 11:53 Mostly Sunny 83 28.3 70 21.1 65 65 WSW 6 9 29.86 1011 10 16 0.00 0.00
12:53 pm 12:53 Partly Cloudy 85 29.4 69 20.6 59 59 VRB 3 6 29.85 1011 10 16 0.00 0.00
1:53 pm 13:53 Mostly Cloudy 85 29.4 70 21.1 61 61 NNW 7 11 29.85 1011 10 16 0.00 0.00
2:53 pm 14:53 Mostly Cloudy 88 31.1 69 20.6 54 54 NNW 10 17 29.85 1011 10 16 0.00 0.00
3:53 pm 15:53 Partly Cloudy 85 29.4 69 20.6 59 59 NW 12 19 29.85 1011 10 16 0.00 0.00
4:53 pm 16:53 Cloudy 80 26.7 72 22.2 76 76 ENE 10 17 29.86 1011 10 16 0.00 0.00
5:53 pm 17:53 Mostly Sunny 84 28.9 70 21.1 63 63 E 6 9 29.85 1011 10 16 0.00 0.00
6:53 pm 18:53 Sunny 82 27.8 71 21.7 69 69 Calm 29.88 1012 10 16 0.00 0.00
7:53 pm 19:53 Partly Cloudy 80 26.7 71 21.7 74 74 Calm 29.89 1012 10 16 0.00 0.00
8:11 pm 20:11 Mostly Cloudy with Heavy Rain 77 25 73 22.8 88 88 W 8 13 29.90 1012 10 16 0.16 4.06
8:20 pm 20:20 Cloudy with Nearby Thunderstorms 77 25 73 22.8 88 88 W 3 6 29.90 1012 10 16 0.16 4.06
8:34 pm 20:34 Cloudy 77 25 73 22.8 88 88 Calm 29.91 1013 10 16 0.16 4.06
8:51 pm 20:51 Partly Cloudy 77 25 73 23 89 89 Calm 29.91 1013 10 16 0.16 4.06
8:53 pm 20:53 Partly Cloudy 77 25 73 22.8 88 88 Calm 29.91 1013 10 16 0.16 4.06
9:40 pm 21:40 Mostly Cloudy 76 24.4 73 22.8 91 91 Calm 29.92 1013 10 16 0.00 0.00
9:53 pm 21:53 Partly Cloudy 76 24.4 73 22.8 91 91 ESE 5 7 29.92 1013 10 16 0.00 0.00
10:53 pm 22:53 Clear 75 23.9 72 22.2 90 90 Calm 29.91 1013 10 16 0.00 0.00
11:53 pm 23:53 Mostly Clear 74 23.3 71 21.7 91 91 Calm 29.92 1013 10 16 0.00 0.00

Powered by AerisWeather